Time,TemperatureF,DewpointF,PressureIn,WindDirection,WindDirectionDegrees,WindSpeedMPH,WindSpeedGustMPH,Humidity,HourlyPrecipIn,Conditions,Clouds,dailyrainin,SoftwareType,DateUTC
2013-01-07 00:01:00,28.7,23.6,30.11,SSE,153,3.0,7.0,81,0.00,,,0.00,WUHU216DAVISVP2,2013-01-07 06:01:00,
2013-01-07 00:06:00,28.5,23.7,30.11,SW,215,2.0,7.0,82,0.00,,,0.00,WUHU216DAVISVP2,2013-01-07 06:06:00,
2013-01-07 00:11:00,28.5,23.7,30.11,SE,136,1.0,7.0,82,0.00,,,0.00,WUHU216DAVISVP2,2013-01-07 06:11:00,
2013-01-07 00:16:00,28.4,23.6,30.11,SSE,153,2.0,7.0,82,0.00,,,0.00,WUHU216DAVISVP2,2013-01-07 06:16:00,
2013-01-07 00:21:00,28.5,23.7,30.11,South,191,1.0,9.0,82,0.00,,,0.00,WUHU216DAVISVP2,2013-01-07 06:21:00,
2013-01-07 00:26:00,28.8,24.0,30.10,South,169,4.0,10.0,82,0.00,,,0.00,WUHU216DAVISVP2,2013-01-07 06:26:00,
2013-01-07 00:31:00,28.9,23.8,30.10,South,170,5.0,10.0,81,0.00,,,0.00,WUHU216DAVISVP2,2013-01-07 06:31:00,
2013-01-07 00:36:00,28.9,23.8,30.10,South,181,9.0,10.0,81,0.00,,,0.00,WUHU216DAVISVP2,2013-01-07 06:36:00,
2013-01-07 00:41:00,29.0,23.9,30.10,South,175,4.0,10.0,81,0.00,,,0.00,WUHU216DAVISVP2,2013-01-07 06:41:00,
2013-01-07 00:46:00,29.0,23.9,30.09,SSW,210,6.0,10.0,81,0.00,,,0.00,WUHU216DAVISVP2,2013-01-07 06:46:00,
2013-01-07 00:51:00,29.0,23.9,30.10,SSW,195,3.0,10.0,81,0.00,,,0.00,WUHU216DAVISVP2,2013-01-07 06:51:00,
2013-01-07 00:56:00,29.0,23.9,30.10,South,171,5.0,8.0,81,0.00,,,0.00,WUHU216DAVISVP2,2013-01-07 06:56:00,
2013-01-07 01:01:00,28.9,23.8,30.09,SSE,166,1.0,8.0,81,0.00,,,0.00,WUHU216DAVISVP2,2013-01-07 07:01:00,
2013-01-07 01:06:00,28.9,23.8,30.10,SSE,156,3.0,7.0,81,0.00,,,0.00,WUHU216DAVISVP2,2013-01-07 07:06:00,
2013-01-07 01:11:00,28.9,23.8,30.09,SSE,148,4.0,8.0,81,0.00,,,0.00,WUHU216DAVISVP2,2013-01-07 07:11:00,
2013-01-07 01:16:00,28.9,23.5,30.09,South,169,3.0,8.0,80,0.00,,,0.00,WUHU216DAVISVP2,2013-01-07 07:16:00,
2013-01-07 01:21:00,28.9,23.5,30.09,SW,221,3.0,8.0,80,0.00,,,0.00,WUHU216DAVISVP2,2013-01-07 07:21:00,
2013-01-07 01:26:00,28.8,23.4,30.09,SSE,166,2.0,8.0,80,0.00,,,0.00,WUHU216DAVISVP2,2013-01-07 07:26:00,
2013-01-07 01:31:00,28.8,23.4,30.09,SSW,208,3.0,8.0,80,0.00,,,0.00,WUHU216DAVISVP2,2013-01-07 07:31:00,
2013-01-07 01:36:00,28.8,23.4,30.08,SW,226,3.0,8.0,80,0.00,,,0.00,WUHU216DAVISVP2,2013-01-07 07:36:00,
2013-01-07 01:41:00,28.8,23.4,30.08,SSE,156,2.0,8.0,80,0.00,,,0.00,WUHU216DAVISVP2,2013-01-07 07:41:00,
2013-01-07 01:46:00,28.7,23.3,30.08,South,187,3.0,8.0,80,0.00,,,0.00,WUHU216DAVISVP2,2013-01-07 07:46:00,
2013-01-07 01:51:00,28.6,23.2,30.08,SSE,159,2.0,8.0,80,0.00,,,0.00,WUHU216DAVISVP2,2013-01-07 07:51:00,
2013-01-07 01:56:00,28.5,23.1,30.08,South,188,6.0,8.0,80,0.00,,,0.00,WUHU216DAVISVP2,2013-01-07 07:56:00,
2013-01-07 02:01:00,28.4,23.0,30.08,South,187,2.0,7.0,80,0.00,,,0.00,WUHU216DAVISVP2,2013-01-07 08:01:00,
2013-01-07 02:06:00,28.5,23.1,30.08,SSE,151,2.0,7.0,80,0.00,,,0.00,WUHU216DAVISVP2,2013-01-07 08:06:00,
2013-01-07 02:11:00,28.6,23.2,30.08,SSW,210,2.0,8.0,80,0.00,,,0.00,WUHU216DAVISVP2,2013-01-07 08:11:00,
2013-01-07 02:16:00,28.7,23.3,30.08,SW,222,5.0,8.0,80,0.00,,,0.00,WUHU216DAVISVP2,2013-01-07 08:16:00,
2013-01-07 02:21:00,28.9,23.2,30.08,South,177,3.0,8.0,79,0.00,,,0.00,WUHU216DAVISVP2,2013-01-07 08:21:00,
2013-01-07 02:26:00,29.2,23.5,30.08,SSE,150,3.0,11.0,79,0.00,,,0.00,WUHU216DAVISVP2,2013-01-07 08:26:00,
2013-01-07 02:31:00,29.4,23.4,30.08,South,184,5.0,12.0,78,0.00,,,0.00,WUHU216DAVISVP2,2013-01-07 08:31:00,
2013-01-07 02:36:00,29.4,23.4,30.08,SSE,160,6.0,12.0,78,0.00,,,0.00,WUHU216DAVISVP2,2013-01-07 08:36:00,
2013-01-07 02:41:00,29.4,23.4,30.08,SSW,198,7.0,12.0,78,0.00,,,0.00,WUHU216DAVISVP2,2013-01-07 08:41:00,
2013-01-07 02:46:00,29.2,23.2,30.08,SE,143,4.0,12.0,78,0.00,,,0.00,WUHU216DAVISVP2,2013-01-07 08:46:00,
2013-01-07 02:51:00,29.0,23.0,30.08,SSE,167,4.0,10.0,78,0.00,,,0.00,WUHU216DAVISVP2,2013-01-07 08:51:00,
2013-01-07 02:56:00,29.0,23.0,30.08,SSW,194,7.0,12.0,78,0.00,,,0.00,WUHU216DAVISVP2,2013-01-07 08:56:00,
2013-01-07 03:01:00,29.1,23.1,30.08,SSW,198,9.0,12.0,78,0.00,,,0.00,WUHU216DAVISVP2,2013-01-07 09:01:00,
2013-01-07 03:06:00,29.3,23.3,30.08,SW,219,5.0,11.0,78,0.00,,,0.00,WUHU216DAVISVP2,2013-01-07 09:06:00,
2013-01-07 03:11:00,29.4,23.4,30.08,South,179,6.0,11.0,78,0.00,,,0.00,WUHU216DAVISVP2,2013-01-07 09:11:00,
2013-01-07 03:16:00,29.4,23.4,30.07,South,170,3.0,10.0,78,0.00,,,0.00,WUHU216DAVISVP2,2013-01-07 09:16:00,
2013-01-07 03:21:00,29.3,23.3,30.07,South,181,5.0,9.0,78,0.00,,,0.00,WUHU216DAVISVP2,2013-01-07 09:21:00,
2013-01-07 03:26:00,29.3,23.3,30.07,SE,137,3.0,9.0,78,0.00,,,0.00,WUHU216DAVISVP2,2013-01-07 09:26:00,
2013-01-07 03:31:00,29.3,23.3,30.07,South,183,4.0,9.0,78,0.00,,,0.00,WUHU216DAVISVP2,2013-01-07 09:31:00,
2013-01-07 03:36:00,29.4,23.4,30.07,SSW,200,3.0,9.0,78,0.00,,,0.00,WUHU216DAVISVP2,2013-01-07 09:36:00,
2013-01-07 03:41:00,29.4,23.4,30.06,SE,138,3.0,12.0,78,0.00,,,0.00,WUHU216DAVISVP2,2013-01-07 09:41:00,
2013-01-07 03:46:00,29.5,23.5,30.06,SW,224,8.0,12.0,78,0.00,,,0.00,WUHU216DAVISVP2,2013-01-07 09:46:00,
2013-01-07 03:51:00,29.6,23.3,30.06,South,180,7.0,12.0,77,0.00,,,0.00,WUHU216DAVISVP2,2013-01-07 09:51:00,
2013-01-07 03:56:00,29.7,23.4,30.06,South,170,6.0,12.0,77,0.00,,,0.00,WUHU216DAVISVP2,2013-01-07 09:56:00,
2013-01-07 04:01:00,29.9,23.6,30.05,South,186,6.0,10.0,77,0.00,,,0.00,WUHU216DAVISVP2,2013-01-07 10:01:00,
2013-01-07 04:06:00,29.9,23.6,30.05,South,179,7.0,10.0,77,0.00,,,0.00,WUHU216DAVISVP2,2013-01-07 10:06:00,
2013-01-07 04:11:00,29.9,23.6,30.05,SW,230,1.0,10.0,77,0.00,,,0.00,WUHU216DAVISVP2,2013-01-07 10:11:00,
2013-01-07 04:16:00,30.0,23.7,30.05,South,177,4.0,10.0,77,0.00,,,0.00,WUHU216DAVISVP2,2013-01-07 10:16:00,
2013-01-07 04:21:00,30.0,23.7,30.04,SSW,211,7.0,8.0,77,0.00,,,0.00,WUHU216DAVISVP2,2013-01-07 10:21:00,
2013-01-07 04:26:00,30.2,23.6,30.04,SE,136,5.0,11.0,76,0.00,,,0.00,WUHU216DAVISVP2,2013-01-07 10:26:00,
2013-01-07 04:31:00,30.2,23.6,30.04,SSE,159,4.0,12.0,76,0.00,,,0.00,WUHU216DAVISVP2,2013-01-07 10:31:00,
2013-01-07 04:36:00,30.2,23.6,30.04,SW,222,9.0,12.0,76,0.00,,,0.00,WUHU216DAVISVP2,2013-01-07 10:36:00,
2013-01-07 04:41:00,30.4,23.8,30.03,SSE,159,5.0,12.0,76,0.00,,,0.00,WUHU216DAVISVP2,2013-01-07 10:41:00,
2013-01-07 04:46:00,30.5,23.9,30.03,South,172,6.0,12.0,76,0.00,,,0.00,WUHU216DAVISVP2,2013-01-07 10:46:00,
2013-01-07 04:51:00,30.7,23.8,30.03,South,174,6.0,12.0,75,0.00,,,0.00,WUHU216DAVISVP2,2013-01-07 10:51:00,
2013-01-07 04:56:00,30.9,23.9,30.03,South,173,4.0,12.0,75,0.00,,,0.00,WUHU216DAVISVP2,2013-01-07 10:56:00,
2013-01-07 05:01:00,30.9,23.9,30.03,South,173,4.0,12.0,75,0.00,,,0.00,WUHU216DAVISVP2,2013-01-07 11:01:00,
2013-01-07 05:06:00,30.9,23.9,30.03,South,172,4.0,12.0,75,0.00,,,0.00,WUHU216DAVISVP2,2013-01-07 11:06:00,
2013-01-07 05:11:00,30.8,23.8,30.03,South,169,6.0,10.0,75,0.00,,,0.00,WUHU216DAVISVP2,2013-01-07 11:11:00,
2013-01-07 05:16:00,30.7,23.8,30.02,SSE,165,6.0,11.0,75,0.00,,,0.00,WUHU216DAVISVP2,2013-01-07 11:16:00,
2013-01-07 05:21:00,30.6,23.7,30.02,SE,138,5.0,11.0,75,0.00,,,0.00,WUHU216DAVISVP2,2013-01-07 11:21:00,
2013-01-07 05:26:00,30.6,23.7,30.02,SSE,166,4.0,11.0,75,0.00,,,0.00,WUHU216DAVISVP2,2013-01-07 11:26:00,
2013-01-07 05:31:00,30.5,23.6,30.01,SSE,154,4.0,11.0,75,0.00,,,0.00,WUHU216DAVISVP2,2013-01-07 11:31:00,
2013-01-07 05:36:00,30.4,23.5,30.01,South,169,5.0,11.0,75,0.00,,,0.00,WUHU216DAVISVP2,2013-01-07 11:36:00,
2013-01-07 05:41:00,30.6,23.7,30.00,South,174,6.0,16.0,75,0.00,,,0.00,WUHU216DAVISVP2,2013-01-07 11:41:00,
2013-01-07 05:46:00,30.6,23.7,30.00,SSW,197,7.0,16.0,75,0.00,,,0.00,WUHU216DAVISVP2,2013-01-07 11:46:00,
2013-01-07 05:51:00,30.8,23.8,30.01,SE,141,4.0,16.0,75,0.00,,,0.00,WUHU216DAVISVP2,2013-01-07 11:51:00,
2013-01-07 05:56:00,30.8,23.8,30.01,SSE,156,4.0,16.0,75,0.00,,,0.00,WUHU216DAVISVP2,2013-01-07 11:56:00,
2013-01-07 06:01:00,30.9,23.9,30.00,SSE,160,6.0,12.0,75,0.00,,,0.00,WUHU216DAVISVP2,2013-01-07 12:01:00,
2013-01-07 06:06:00,30.9,23.9,30.00,SSW,201,9.0,13.0,75,0.00,,,0.00,WUHU216DAVISVP2,2013-01-07 12:06:00,
2013-01-07 06:11:00,31.0,24.0,30.00,SW,236,2.0,13.0,75,0.00,,,0.00,WUHU216DAVISVP2,2013-01-07 12:11:00,
2013-01-07 06:16:00,31.0,23.7,30.00,South,174,4.0,13.0,74,0.00,,,0.00,WUHU216DAVISVP2,2013-01-07 12:16:00,
2013-01-07 06:21:00,30.9,23.9,30.00,SW,214,4.0,13.0,75,0.00,,,0.00,WUHU216DAVISVP2,2013-01-07 12:21:00,
2013-01-07 06:26:00,30.8,23.8,30.01,SE,135,0.0,11.0,75,0.00,,,0.00,WUHU216DAVISVP2,2013-01-07 12:26:00,
2013-01-07 06:31:00,30.6,23.7,30.02,SW,215,0.0,8.0,75,0.00,,,0.00,WUHU216DAVISVP2,2013-01-07 12:31:00,
2013-01-07 06:36:00,30.7,23.8,30.02,SSW,205,3.0,8.0,75,0.00,,,0.00,WUHU216DAVISVP2,2013-01-07 12:36:00,
2013-01-07 06:41:00,30.7,23.8,30.02,WNW,290,2.0,8.0,75,0.00,,,0.00,WUHU216DAVISVP2,2013-01-07 12:41:00,
2013-01-07 06:47:00,30.8,23.8,30.02,SSW,207,6.0,7.0,75,0.00,,,0.00,WUHU216DAVISVP2,2013-01-07 12:47:00,
2013-01-07 06:52:00,30.7,23.8,30.02,WSW,245,6.0,8.0,75,0.00,,,0.00,WUHU216DAVISVP2,2013-01-07 12:52:00,
2013-01-07 06:57:00,30.5,23.6,30.02,SSE,147,3.0,8.0,75,0.00,,,0.00,WUHU216DAVISVP2,2013-01-07 12:57:00,
2013-01-07 07:02:00,30.3,23.7,30.02,SSE,159,3.0,8.0,76,0.00,,,0.00,WUHU216DAVISVP2,2013-01-07 13:02:00,
2013-01-07 07:07:00,30.2,23.6,30.02,SSW,208,2.0,8.0,76,0.00,,,0.00,WUHU216DAVISVP2,2013-01-07 13:07:00,
2013-01-07 07:12:00,30.1,23.5,30.02,SW,217,4.0,8.0,76,0.00,,,0.00,WUHU216DAVISVP2,2013-01-07 13:12:00,
2013-01-07 07:17:00,29.9,23.3,30.02,South,172,3.0,8.0,76,0.00,,,0.00,WUHU216DAVISVP2,2013-01-07 13:17:00,
2013-01-07 07:22:00,29.8,23.5,30.01,SSE,158,4.0,9.0,77,0.00,,,0.00,WUHU216DAVISVP2,2013-01-07 13:22:00,
2013-01-07 07:27:00,29.8,23.5,30.01,South,171,8.0,9.0,77,0.00,,,0.00,WUHU216DAVISVP2,2013-01-07 13:27:00,
2013-01-07 07:32:00,29.6,23.3,30.01,SW,220,4.0,9.0,77,0.00,,,0.00,WUHU216DAVISVP2,2013-01-07 13:32:00,
2013-01-07 07:37:00,29.5,23.5,30.00,SE,141,2.0,9.0,78,0.00,,,0.00,WUHU216DAVISVP2,2013-01-07 13:37:00,
2013-01-07 07:42:00,29.5,23.5,30.01,SSE,156,2.0,8.0,78,0.00,,,0.00,WUHU216DAVISVP2,2013-01-07 13:42:00,
2013-01-07 07:47:00,29.6,23.6,30.01,SE,124,3.0,6.0,78,0.00,,,0.00,WUHU216DAVISVP2,2013-01-07 13:47:00,
2013-01-07 07:52:00,29.7,23.7,30.00,ESE,121,1.0,6.0,78,0.00,,,0.00,WUHU216DAVISVP2,2013-01-07 13:52:00,
2013-01-07 07:57:00,29.6,23.6,30.01,ENE,69,1.0,5.0,78,0.00,,,0.00,WUHU216DAVISVP2,2013-01-07 13:57:00,
2013-01-07 08:02:00,29.4,23.4,30.01,ENE,72,0.0,4.0,78,0.00,,,0.00,WUHU216DAVISVP2,2013-01-07 14:02:00,
2013-01-07 08:07:00,29.1,23.1,30.01,ENE,72,0.0,2.0,78,0.00,,,0.00,WUHU216DAVISVP2,2013-01-07 14:07:00,
2013-01-07 08:12:00,28.8,23.1,30.00,SE,135,1.0,2.0,79,0.00,,,0.00,WUHU216DAVISVP2,2013-01-07 14:12:00,
2013-01-07 08:17:00,28.9,23.5,30.01,SSE,158,1.0,2.0,80,0.00,,,0.00,WUHU216DAVISVP2,2013-01-07 14:17:00,
2013-01-07 08:22:00,29.1,23.4,30.01,SSE,157,1.0,4.0,79,0.00,,,0.00,WUHU216DAVISVP2,2013-01-07 14:22:00,
2013-01-07 08:27:00,29.2,23.5,30.01,SE,141,0.0,4.0,79,0.00,,,0.00,WUHU216DAVISVP2,2013-01-07 14:27:00,
2013-01-07 08:32:00,29.4,23.7,30.01,SSE,150,0.0,4.0,79,0.00,,,0.00,WUHU216DAVISVP2,2013-01-07 14:32:00,
2013-01-07 08:37:00,29.7,24.0,30.01,SSE,157,3.0,4.0,79,0.00,,,0.00,WUHU216DAVISVP2,2013-01-07 14:37:00,
2013-01-07 08:42:00,30.2,24.2,30.01,SE,132,0.0,6.0,78,0.00,,,0.00,WUHU216DAVISVP2,2013-01-07 14:42:00,
2013-01-07 08:47:00,30.7,24.7,30.02,SW,221,6.0,6.0,78,0.00,,,0.00,WUHU216DAVISVP2,2013-01-07 14:47:00,
2013-01-07 08:52:00,31.0,24.7,30.02,SE,145,2.0,7.0,77,0.00,,,0.00,WUHU216DAVISVP2,2013-01-07 14:52:00,
2013-01-07 08:57:00,31.1,24.4,30.01,South,186,3.0,8.0,76,0.00,,,0.00,WUHU216DAVISVP2,2013-01-07 14:57:00,
2013-01-07 09:02:00,31.2,24.5,30.01,South,190,5.0,8.0,76,0.00,,,0.00,WUHU216DAVISVP2,2013-01-07 15:02:00,
2013-01-07 09:07:00,31.5,24.8,30.01,South,171,2.0,8.0,76,0.00,,,0.00,WUHU216DAVISVP2,2013-01-07 15:07:00,
2013-01-07 09:12:00,31.7,24.7,30.02,SW,215,6.0,8.0,75,0.00,,,0.00,WUHU216DAVISVP2,2013-01-07 15:12:00,
2013-01-07 09:17:00,31.8,24.8,30.01,SSE,156,2.0,8.0,75,0.00,,,0.00,WUHU216DAVISVP2,2013-01-07 15:17:00,
2013-01-07 09:22:00,32.1,25.1,30.02,SE,145,2.0,8.0,75,0.00,,,0.00,WUHU216DAVISVP2,2013-01-07 15:22:00,
2013-01-07 09:27:00,32.4,25.1,30.02,SSW,194,3.0,7.0,74,0.00,,,0.00,WUHU216DAVISVP2,2013-01-07 15:27:00,
2013-01-07 09:32:00,32.7,25.4,30.02,SW,218,1.0,6.0,74,0.00,,,0.00,WUHU216DAVISVP2,2013-01-07 15:32:00,
2013-01-07 09:37:00,32.8,25.5,30.02,South,173,2.0,4.0,74,0.00,,,0.00,WUHU216DAVISVP2,2013-01-07 15:37:00,
2013-01-07 09:42:00,32.9,25.6,30.02,South,186,4.0,5.0,74,0.00,,,0.00,WUHU216DAVISVP2,2013-01-07 15:42:00,
2013-01-07 09:47:00,33.1,25.8,30.02,SSW,197,0.0,5.0,74,0.00,,,0.00,WUHU216DAVISVP2,2013-01-07 15:47:00,
2013-01-07 09:52:00,33.3,26.0,30.02,ESE,122,1.0,5.0,74,0.00,,,0.00,WUHU216DAVISVP2,2013-01-07 15:52:00,
2013-01-07 09:57:00,33.6,25.9,30.02,SSW,209,3.0,7.0,73,0.00,,,0.00,WUHU216DAVISVP2,2013-01-07 15:57:00,
2013-01-07 10:02:00,33.9,26.2,30.02,West,273,4.0,7.0,73,0.00,,,0.00,WUHU216DAVISVP2,2013-01-07 16:02:00,
2013-01-07 10:07:00,34.3,26.3,30.03,South,184,3.0,6.0,72,0.00,,,0.00,WUHU216DAVISVP2,2013-01-07 16:07:00,
2013-01-07 10:12:00,34.6,26.6,30.02,SSE,160,0.0,6.0,72,0.00,,,0.00,WUHU216DAVISVP2,2013-01-07 16:12:00,
2013-01-07 10:17:00,35.1,26.7,30.03,SW,229,4.0,6.0,71,0.00,,,0.00,WUHU216DAVISVP2,2013-01-07 16:17:00,
2013-01-07 10:22:00,35.5,27.1,30.03,SW,236,2.0,7.0,71,0.00,,,0.00,WUHU216DAVISVP2,2013-01-07 16:22:00,
2013-01-07 10:27:00,36.1,27.3,30.03,SSW,198,0.0,7.0,70,0.00,,,0.00,WUHU216DAVISVP2,2013-01-07 16:27:00,
2013-01-07 10:32:00,36.8,27.7,30.03,West,259,6.0,14.0,69,0.00,,,0.00,WUHU216DAVISVP2,2013-01-07 16:32:00,
2013-01-07 10:37:00,37.3,27.8,30.03,SW,236,9.0,14.0,68,0.00,,,0.00,WUHU216DAVISVP2,2013-01-07 16:37:00,
2013-01-07 10:42:00,37.6,27.6,30.03,SW,235,9.0,13.0,67,0.00,,,0.00,WUHU216DAVISVP2,2013-01-07 16:42:00,
2013-01-07 10:47:00,37.8,27.8,30.03,SW,223,7.0,13.0,67,0.00,,,0.00,WUHU216DAVISVP2,2013-01-07 16:47:00,
2013-01-07 10:52:00,37.9,28.0,30.03,WSW,248,2.0,12.0,67,0.00,,,0.00,WUHU216DAVISVP2,2013-01-07 16:52:00,
2013-01-07 10:57:00,38.1,27.8,30.03,South,183,4.0,12.0,66,0.00,,,0.00,WUHU216DAVISVP2,2013-01-07 16:57:00,
2013-01-07 11:02:00,38.3,28.4,30.03,SW,219,7.0,12.0,67,0.00,,,0.00,WUHU216DAVISVP2,2013-01-07 17:02:00,
2013-01-07 11:07:00,38.4,28.1,30.03,SW,232,7.0,12.0,66,0.00,,,0.00,WUHU216DAVISVP2,2013-01-07 17:07:00,
2013-01-07 11:12:00,38.7,28.4,30.02,WSW,238,10.0,12.0,66,0.00,,,0.00,WUHU216DAVISVP2,2013-01-07 17:12:00,
2013-01-07 11:17:00,38.9,28.2,30.03,WSW,257,6.0,11.0,65,0.00,,,0.00,WUHU216DAVISVP2,2013-01-07 17:17:00,
2013-01-07 11:22:00,39.1,28.8,30.02,West,280,3.0,11.0,66,0.00,,,0.00,WUHU216DAVISVP2,2013-01-07 17:22:00,
2013-01-07 11:27:00,39.2,28.9,30.02,SW,233,2.0,11.0,66,0.00,,,0.00,WUHU216DAVISVP2,2013-01-07 17:27:00,
2013-01-07 11:32:00,39.3,28.6,30.01,West,259,5.0,12.0,65,0.00,,,0.00,WUHU216DAVISVP2,2013-01-07 17:32:00,
2013-01-07 11:37:00,39.3,28.6,30.02,West,278,3.0,12.0,65,0.00,,,0.00,WUHU216DAVISVP2,2013-01-07 17:37:00,
2013-01-07 11:42:00,39.2,28.9,30.01,WSW,252,4.0,13.0,66,0.00,,,0.00,WUHU216DAVISVP2,2013-01-07 17:42:00,
2013-01-07 11:47:00,39.4,29.1,30.01,SW,235,9.0,13.0,66,0.00,,,0.00,WUHU216DAVISVP2,2013-01-07 17:47:00,
2013-01-07 11:52:00,39.4,29.1,30.01,SSW,201,1.0,12.0,66,0.00,,,0.00,WUHU216DAVISVP2,2013-01-07 17:52:00,
2013-01-07 11:57:00,39.4,28.7,30.00,South,190,5.0,12.0,65,0.00,,,0.00,WUHU216DAVISVP2,2013-01-07 17:57:00,
2013-01-07 12:02:00,39.3,28.9,30.00,West,281,2.0,12.0,66,0.00,,,0.00,WUHU216DAVISVP2,2013-01-07 18:02:00,
2013-01-07 12:07:00,39.3,28.6,29.99,West,278,4.0,11.0,65,0.00,,,0.00,WUHU216DAVISVP2,2013-01-07 18:07:00,
2013-01-07 12:12:00,39.3,28.9,29.99,NW,321,2.0,11.0,66,0.00,,,0.00,WUHU216DAVISVP2,2013-01-07 18:12:00,
2013-01-07 12:17:00,39.4,29.1,29.99,SW,218,7.0,10.0,66,0.00,,,0.00,WUHU216DAVISVP2,2013-01-07 18:17:00,
2013-01-07 12:22:00,39.5,29.1,29.98,SSW,208,4.0,13.0,66,0.00,,,0.00,WUHU216DAVISVP2,2013-01-07 18:22:00,
2013-01-07 12:27:00,39.8,29.4,29.98,SW,229,0.0,13.0,66,0.00,,,0.00,WUHU216DAVISVP2,2013-01-07 18:27:00,
2013-01-07 12:32:00,39.9,29.5,29.98,WSW,254,4.0,12.0,66,0.00,,,0.00,WUHU216DAVISVP2,2013-01-07 18:32:00,
2013-01-07 12:37:00,40.0,29.6,29.98,SW,215,4.0,12.0,66,0.00,,,0.00,WUHU216DAVISVP2,2013-01-07 18:37:00,
2013-01-07 12:42:00,39.9,29.1,29.98,WNW,290,6.0,10.0,65,0.01,,,0.01,WUHU216DAVISVP2,2013-01-07 18:42:00,
2013-01-07 12:47:00,39.9,29.5,29.98,West,274,4.0,10.0,66,0.01,,,0.01,WUHU216DAVISVP2,2013-01-07 18:47:00,
2013-01-07 12:52:00,39.9,29.2,29.98,WSW,239,3.0,10.0,65,0.01,,,0.01,WUHU216DAVISVP2,2013-01-07 18:52:00,
2013-01-07 12:57:00,39.9,29.5,29.98,WSW,242,5.0,10.0,66,0.01,,,0.01,WUHU216DAVISVP2,2013-01-07 18:57:00,
2013-01-07 13:02:00,40.0,29.6,29.98,West,281,2.0,10.0,66,0.01,,,0.01,WUHU216DAVISVP2,2013-01-07 19:02:00,
2013-01-07 13:07:00,40.0,29.6,29.98,WSW,239,7.0,10.0,66,0.01,,,0.01,WUHU216DAVISVP2,2013-01-07 19:07:00,
2013-01-07 13:12:00,40.3,29.5,29.98,WSW,252,4.0,10.0,65,0.01,,,0.01,WUHU216DAVISVP2,2013-01-07 19:12:00,
2013-01-07 13:17:00,40.3,29.5,29.98,West,262,1.0,9.0,65,0.01,,,0.01,WUHU216DAVISVP2,2013-01-07 19:17:00,
2013-01-07 13:22:00,40.1,28.9,29.98,WSW,239,5.0,9.0,64,0.01,,,0.01,WUHU216DAVISVP2,2013-01-07 19:22:00,
2013-01-07 13:27:00,40.0,29.2,29.97,SSE,160,3.0,9.0,65,0.01,,,0.01,WUHU216DAVISVP2,2013-01-07 19:27:00,
2013-01-07 13:32:00,40.0,29.2,29.97,WSW,243,2.0,8.0,65,0.01,,,0.01,WUHU216DAVISVP2,2013-01-07 19:32:00,
2013-01-07 13:37:00,39.9,29.2,29.97,WSW,242,5.0,10.0,65,0.01,,,0.01,WUHU216DAVISVP2,2013-01-07 19:37:00,
2013-01-07 13:42:00,39.8,29.4,29.97,SW,233,6.0,10.0,66,0.00,,,0.01,WUHU216DAVISVP2,2013-01-07 19:42:00,
2013-01-07 13:47:00,39.8,29.4,29.97,WSW,242,7.0,9.0,66,0.00,,,0.01,WUHU216DAVISVP2,2013-01-07 19:47:00,
2013-01-07 13:52:00,39.9,29.5,29.97,West,267,3.0,9.0,66,0.00,,,0.01,WUHU216DAVISVP2,2013-01-07 19:52:00,
2013-01-07 13:57:00,40.0,29.6,29.98,WNW,287,3.0,8.0,66,0.00,,,0.01,WUHU216DAVISVP2,2013-01-07 19:57:00,
2013-01-07 14:02:00,39.9,29.5,29.98,West,278,1.0,9.0,66,0.00,,,0.01,WUHU216DAVISVP2,2013-01-07 20:02:00,
2013-01-07 14:07:00,39.9,29.5,29.98,West,278,4.0,9.0,66,0.00,,,0.01,WUHU216DAVISVP2,2013-01-07 20:07:00,
2013-01-07 14:12:00,39.8,29.4,29.98,WNW,295,2.0,8.0,66,0.00,,,0.01,WUHU216DAVISVP2,2013-01-07 20:12:00,
2013-01-07 14:17:00,39.8,29.4,29.98,West,267,2.0,8.0,66,0.00,,,0.01,WUHU216DAVISVP2,2013-01-07 20:17:00,
2013-01-07 14:19:00,39.7,29.3,29.98,WNW,290,4.0,9.0,66,0.00,,,0.01,WUHU216DAVISVP2,2013-01-07 20:19:00,
2013-01-07 14:24:00,39.7,29.3,29.98,NNW,330,4.0,9.0,66,0.00,,,0.01,WUHU216DAVISVP2,2013-01-07 20:24:00,
2013-01-07 14:29:00,39.5,29.2,29.97,WSW,252,3.0,9.0,66,0.00,,,0.01,WUHU216DAVISVP2,2013-01-07 20:29:00,
2013-01-07 14:34:00,39.5,29.5,29.98,West,270,1.0,9.0,67,0.00,,,0.01,WUHU216DAVISVP2,2013-01-07 20:34:00,
2013-01-07 14:39:00,39.5,29.9,29.98,WSW,242,4.0,8.0,68,0.00,,,0.01,WUHU216DAVISVP2,2013-01-07 20:39:00,
2013-01-07 14:44:00,39.4,29.4,29.98,WSW,257,2.0,8.0,67,0.00,,,0.01,WUHU216DAVISVP2,2013-01-07 20:44:00,
2013-01-07 14:49:00,39.3,29.3,29.98,West,263,2.0,7.0,67,0.00,,,0.01,WUHU216DAVISVP2,2013-01-07 20:49:00,
2013-01-07 14:54:00,39.3,29.7,29.98,NW,304,2.0,7.0,68,0.00,,,0.01,WUHU216DAVISVP2,2013-01-07 20:54:00,
2013-01-07 14:59:00,39.3,29.3,29.98,WSW,246,2.0,7.0,67,0.00,,,0.01,WUHU216DAVISVP2,2013-01-07 20:59:00,
2013-01-07 15:04:00,39.3,29.3,29.98,SW,218,1.0,7.0,67,0.00,,,0.01,WUHU216DAVISVP2,2013-01-07 21:04:00,
2013-01-07 15:09:00,39.3,29.6,29.98,West,260,2.0,6.0,68,0.00,,,0.01,WUHU216DAVISVP2,2013-01-07 21:09:00,
2013-01-07 15:14:00,39.3,29.6,29.98,WSW,242,5.0,6.0,68,0.00,,,0.01,WUHU216DAVISVP2,2013-01-07 21:14:00,
2013-01-07 15:19:00,39.1,29.1,29.98,WSW,257,4.0,8.0,67,0.00,,,0.01,WUHU216DAVISVP2,2013-01-07 21:19:00,
2013-01-07 15:24:00,38.9,29.3,29.99,WSW,255,1.0,8.0,68,0.00,,,0.01,WUHU216DAVISVP2,2013-01-07 21:24:00,
2013-01-07 15:29:00,39.0,29.8,29.98,WNW,287,2.0,7.0,69,0.00,,,0.01,WUHU216DAVISVP2,2013-01-07 21:29:00,
2013-01-07 15:34:00,38.8,29.2,29.99,West,276,2.0,6.0,68,0.00,,,0.01,WUHU216DAVISVP2,2013-01-07 21:34:00,
2013-01-07 15:39:00,39.0,29.8,29.98,WSW,246,2.0,6.0,69,0.00,,,0.01,WUHU216DAVISVP2,2013-01-07 21:39:00,
2013-01-07 15:44:00,39.0,29.8,29.99,West,259,3.0,6.0,69,0.00,,,0.01,WUHU216DAVISVP2,2013-01-07 21:44:00,
2013-01-07 15:49:00,38.9,29.7,29.98,NW,322,1.0,6.0,69,0.00,,,0.01,WUHU216DAVISVP2,2013-01-07 21:49:00,
2013-01-07 15:54:00,39.0,29.4,29.99,SW,236,2.0,6.0,68,0.00,,,0.01,WUHU216DAVISVP2,2013-01-07 21:54:00,
2013-01-07 15:59:00,39.2,29.9,29.99,WSW,243,3.0,6.0,69,0.00,,,0.01,WUHU216DAVISVP2,2013-01-07 21:59:00,
2013-01-07 16:04:00,39.4,29.7,29.99,WSW,248,1.0,5.0,68,0.00,,,0.01,WUHU216DAVISVP2,2013-01-07 22:04:00,
2013-01-07 16:09:00,39.1,29.4,29.98,West,276,1.0,5.0,68,0.00,,,0.01,WUHU216DAVISVP2,2013-01-07 22:09:00,
2013-01-07 16:14:00,38.9,29.6,29.98,SW,236,0.0,5.0,69,0.00,,,0.01,WUHU216DAVISVP2,2013-01-07 22:14:00,
2013-01-07 16:19:00,38.9,29.6,29.98,West,267,1.0,5.0,69,0.00,,,0.01,WUHU216DAVISVP2,2013-01-07 22:19:00,
2013-01-07 16:24:00,38.7,29.4,29.98,WNW,292,0.0,5.0,69,0.00,,,0.01,WUHU216DAVISVP2,2013-01-07 22:24:00,
2013-01-07 16:29:00,38.4,29.5,29.97,West,259,1.0,3.0,70,0.00,,,0.01,WUHU216DAVISVP2,2013-01-07 22:29:00,
2013-01-07 16:34:00,38.1,29.2,29.97,SW,231,1.0,3.0,70,0.00,,,0.01,WUHU216DAVISVP2,2013-01-07 22:34:00,
2013-01-07 16:39:00,37.7,29.1,29.97,WSW,249,1.0,2.0,71,0.00,,,0.01,WUHU216DAVISVP2,2013-01-07 22:39:00,
2013-01-07 16:44:00,37.5,29.0,29.97,West,263,1.0,3.0,71,0.00,,,0.01,WUHU216DAVISVP2,2013-01-07 22:44:00,
2013-01-07 16:49:00,37.3,29.2,29.97,SW,236,0.0,3.0,72,0.00,,,0.01,WUHU216DAVISVP2,2013-01-07 22:49:00,
2013-01-07 16:54:00,37.1,28.9,29.97,WSW,250,1.0,2.0,72,0.00,,,0.01,WUHU216DAVISVP2,2013-01-07 22:54:00,
2013-01-07 16:59:00,36.7,28.9,29.97,WSW,249,0.0,2.0,73,0.00,,,0.01,WUHU216DAVISVP2,2013-01-07 22:59:00,
2013-01-07 17:04:00,36.4,29.0,29.97,SW,231,0.0,1.0,74,0.00,,,0.01,WUHU216DAVISVP2,2013-01-07 23:04:00,
2013-01-07 17:09:00,36.0,28.9,29.97,SW,231,0.0,1.0,75,0.00,,,0.01,WUHU216DAVISVP2,2013-01-07 23:09:00,
2013-01-07 17:14:00,35.6,28.8,29.97,SW,231,0.0,1.0,76,0.00,,,0.01,WUHU216DAVISVP2,2013-01-07 23:14:00,
2013-01-07 17:19:00,35.1,28.3,29.97,SW,231,0.0,0.0,76,0.00,,,0.01,WUHU216DAVISVP2,2013-01-07 23:19:00,
2013-01-07 17:24:00,34.8,28.3,29.97,SW,231,0.0,0.0,77,0.00,,,0.01,WUHU216DAVISVP2,2013-01-07 23:24:00,
2013-01-07 17:29:00,34.5,28.3,29.97,SW,231,0.0,0.0,78,0.00,,,0.01,WUHU216DAVISVP2,2013-01-07 23:29:00,
2013-01-07 17:34:00,34.3,28.5,29.97,SW,231,0.0,0.0,79,0.00,,,0.01,WUHU216DAVISVP2,2013-01-07 23:34:00,
2013-01-07 17:39:00,33.7,27.9,29.97,SW,231,0.0,0.0,79,0.00,,,0.01,WUHU216DAVISVP2,2013-01-07 23:39:00,
2013-01-07 17:44:00,33.2,27.7,29.97,SW,231,0.0,0.0,80,0.00,,,0.01,WUHU216DAVISVP2,2013-01-07 23:44:00,
2013-01-07 17:49:00,32.7,27.5,29.98,SW,231,0.0,0.0,81,0.00,,,0.01,WUHU216DAVISVP2,2013-01-07 23:49:00,
2013-01-07 17:54:00,32.4,27.5,29.98,SW,231,0.0,0.0,82,0.00,,,0.01,WUHU216DAVISVP2,2013-01-07 23:54:00,
2013-01-07 17:59:00,32.1,27.5,29.98,SW,230,0.0,0.0,83,0.00,,,0.01,WUHU216DAVISVP2,2013-01-07 23:59:00,
2013-01-07 18:04:00,32.0,27.7,29.98,SW,231,0.0,0.0,84,0.00,,,0.01,WUHU216DAVISVP2,2013-01-08 00:04:00,
2013-01-07 18:09:00,32.1,27.8,29.99,SW,231,0.0,0.0,84,0.00,,,0.01,WUHU216DAVISVP2,2013-01-08 00:09:00,
2013-01-07 18:14:00,32.0,27.7,29.99,SW,231,0.0,0.0,84,0.00,,,0.01,WUHU216DAVISVP2,2013-01-08 00:14:00,
2013-01-07 18:19:00,32.3,28.0,29.99,SW,230,0.0,0.0,84,0.00,,,0.01,WUHU216DAVISVP2,2013-01-08 00:19:00,
2013-01-07 18:24:00,32.0,27.4,29.99,SW,230,0.0,0.0,83,0.00,,,0.01,WUHU216DAVISVP2,2013-01-08 00:24:00,
2013-01-07 18:29:00,32.3,28.0,29.98,SW,231,0.0,0.0,84,0.00,,,0.01,WUHU216DAVISVP2,2013-01-08 00:29:00,
2013-01-07 18:34:00,32.3,27.7,29.99,SW,231,0.0,0.0,83,0.00,,,0.01,WUHU216DAVISVP2,2013-01-08 00:34:00,
2013-01-07 18:39:00,31.8,27.2,29.99,SW,231,0.0,0.0,83,0.00,,,0.01,WUHU216DAVISVP2,2013-01-08 00:39:00,
2013-01-07 18:44:00,31.3,26.7,29.99,SW,231,0.0,0.0,83,0.00,,,0.01,WUHU216DAVISVP2,2013-01-08 00:44:00,
2013-01-07 18:49:00,30.9,26.6,29.99,SW,231,0.0,0.0,84,0.00,,,0.01,WUHU216DAVISVP2,2013-01-08 00:49:00,
2013-01-07 18:54:00,30.6,26.6,29.99,SW,231,0.0,0.0,85,0.00,,,0.01,WUHU216DAVISVP2,2013-01-08 00:54:00,
2013-01-07 18:59:00,30.4,26.4,29.99,SW,231,0.0,0.0,85,0.00,,,0.01,WUHU216DAVISVP2,2013-01-08 00:59:00,
2013-01-07 19:04:00,30.5,26.8,29.99,SW,231,0.0,0.0,86,0.00,,,0.01,WUHU216DAVISVP2,2013-01-08 01:04:00,
2013-01-07 19:09:00,30.8,27.1,29.99,SW,230,0.0,0.0,86,0.00,,,0.01,WUHU216DAVISVP2,2013-01-08 01:09:00,
2013-01-07 19:14:00,31.1,27.1,29.98,SW,231,0.0,0.0,85,0.00,,,0.01,WUHU216DAVISVP2,2013-01-08 01:14:00,
2013-01-07 19:19:00,30.8,26.5,29.98,SW,230,0.0,0.0,84,0.00,,,0.01,WUHU216DAVISVP2,2013-01-08 01:19:00,
2013-01-07 19:24:00,30.1,25.8,29.98,SW,231,0.0,0.0,84,0.00,,,0.01,WUHU216DAVISVP2,2013-01-08 01:24:00,
2013-01-07 19:29:00,29.9,26.2,29.98,SW,231,0.0,0.0,86,0.00,,,0.01,WUHU216DAVISVP2,2013-01-08 01:29:00,
2013-01-07 19:34:00,30.4,26.7,29.98,SW,230,0.0,0.0,86,0.00,,,0.01,WUHU216DAVISVP2,2013-01-08 01:34:00,
2013-01-07 19:39:00,30.0,26.0,29.98,SW,231,0.0,0.0,85,0.00,,,0.01,WUHU216DAVISVP2,2013-01-08 01:39:00,
2013-01-07 19:44:00,29.6,25.6,29.98,SW,231,0.0,0.0,85,0.00,,,0.01,WUHU216DAVISVP2,2013-01-08 01:44:00,
2013-01-07 19:49:00,29.2,25.2,29.98,SW,231,0.0,0.0,85,0.00,,,0.01,WUHU216DAVISVP2,2013-01-08 01:49:00,
2013-01-07 19:54:00,28.9,25.2,29.98,SW,230,0.0,0.0,86,0.00,,,0.01,WUHU216DAVISVP2,2013-01-08 01:54:00,
2013-01-07 19:59:00,28.8,25.7,29.98,SW,231,0.0,0.0,88,0.00,,,0.01,WUHU216DAVISVP2,2013-01-08 01:59:00,
2013-01-07 20:04:00,29.0,25.9,29.98,SW,231,0.0,0.0,88,0.00,,,0.01,WUHU216DAVISVP2,2013-01-08 02:04:00,
2013-01-07 20:09:00,28.6,25.5,29.98,SW,231,0.0,0.0,88,0.00,,,0.01,WUHU216DAVISVP2,2013-01-08 02:09:00,
2013-01-07 20:14:00,28.3,25.2,29.98,SW,231,0.0,0.0,88,0.00,,,0.01,WUHU216DAVISVP2,2013-01-08 02:14:00,
2013-01-07 20:19:00,28.3,25.4,29.98,SW,231,0.0,0.0,89,0.00,,,0.01,WUHU216DAVISVP2,2013-01-08 02:19:00,
2013-01-07 20:24:00,29.0,26.7,29.98,SW,229,1.0,1.0,91,0.00,,,0.01,WUHU216DAVISVP2,2013-01-08 02:24:00,
2013-01-07 20:29:00,29.7,27.1,29.98,SW,229,0.0,1.0,90,0.00,,,0.01,WUHU216DAVISVP2,2013-01-08 02:29:00,
2013-01-07 20:34:00,29.4,26.2,29.97,SW,229,0.0,1.0,88,0.00,,,0.01,WUHU216DAVISVP2,2013-01-08 02:34:00,
2013-01-07 20:39:00,28.9,25.8,29.97,SW,229,0.0,1.0,88,0.00,,,0.01,WUHU216DAVISVP2,2013-01-08 02:39:00,
2013-01-07 20:44:00,28.3,25.2,29.97,SW,229,0.0,1.0,88,0.00,,,0.01,WUHU216DAVISVP2,2013-01-08 02:44:00,
2013-01-07 20:49:00,27.8,24.7,29.97,SW,229,0.0,0.0,88,0.00,,,0.01,WUHU216DAVISVP2,2013-01-08 02:49:00,
2013-01-07 20:54:00,28.0,25.1,29.97,SW,229,0.0,0.0,89,0.00,,,0.01,WUHU216DAVISVP2,2013-01-08 02:54:00,
2013-01-07 20:59:00,28.2,25.6,29.97,SW,229,0.0,0.0,90,0.00,,,0.01,WUHU216DAVISVP2,2013-01-08 02:59:00,
2013-01-07 21:04:00,28.3,25.7,29.97,SW,229,0.0,0.0,90,0.00,,,0.01,WUHU216DAVISVP2,2013-01-08 03:04:00,
2013-01-07 21:09:00,28.1,25.2,29.97,SW,229,0.0,0.0,89,0.00,,,0.01,WUHU216DAVISVP2,2013-01-08 03:09:00,
2013-01-07 21:14:00,27.7,24.8,29.97,SW,229,0.0,0.0,89,0.00,,,0.01,WUHU216DAVISVP2,2013-01-08 03:14:00,
2013-01-07 21:19:00,27.6,25.0,29.97,SW,229,0.0,0.0,90,0.00,,,0.01,WUHU216DAVISVP2,2013-01-08 03:19:00,
2013-01-07 21:24:00,27.5,24.9,29.97,SW,229,0.0,0.0,90,0.00,,,0.01,WUHU216DAVISVP2,2013-01-08 03:24:00,
2013-01-07 21:29:00,27.4,24.8,29.96,SW,229,0.0,0.0,90,0.00,,,0.01,WUHU216DAVISVP2,2013-01-08 03:29:00,
2013-01-07 21:34:00,27.5,24.9,29.96,SW,229,0.0,0.0,90,0.00,,,0.01,WUHU216DAVISVP2,2013-01-08 03:34:00,
2013-01-07 21:39:00,27.2,24.6,29.96,SW,229,0.0,0.0,90,0.00,,,0.01,WUHU216DAVISVP2,2013-01-08 03:39:00,
2013-01-07 21:44:00,27.0,24.4,29.96,SW,229,0.0,0.0,90,0.00,,,0.01,WUHU216DAVISVP2,2013-01-08 03:44:00,
2013-01-07 21:49:00,27.2,25.1,29.96,SW,229,0.0,0.0,92,0.00,,,0.01,WUHU216DAVISVP2,2013-01-08 03:49:00,
2013-01-07 21:54:00,27.1,24.8,29.96,SW,229,0.0,0.0,91,0.00,,,0.01,WUHU216DAVISVP2,2013-01-08 03:54:00,
2013-01-07 21:59:00,27.0,24.7,29.96,SW,229,0.0,0.0,91,0.00,,,0.01,WUHU216DAVISVP2,2013-01-08 03:59:00,
2013-01-07 22:04:00,27.4,25.3,29.96,SW,229,0.0,0.0,92,0.00,,,0.01,WUHU216DAVISVP2,2013-01-08 04:04:00,
2013-01-07 22:09:00,27.6,25.5,29.95,SW,229,0.0,0.0,92,0.00,,,0.01,WUHU216DAVISVP2,2013-01-08 04:09:00,
2013-01-07 22:14:00,27.3,25.0,29.95,SW,229,0.0,0.0,91,0.00,,,0.01,WUHU216DAVISVP2,2013-01-08 04:14:00,
2013-01-07 22:19:00,26.9,24.6,29.95,SW,229,0.0,0.0,91,0.00,,,0.01,WUHU216DAVISVP2,2013-01-08 04:19:00,
2013-01-07 22:24:00,26.7,24.4,29.95,SW,229,0.0,0.0,91,0.00,,,0.01,WUHU216DAVISVP2,2013-01-08 04:24:00,
2013-01-07 22:29:00,26.8,24.7,29.95,SW,229,0.0,0.0,92,0.00,,,0.01,WUHU216DAVISVP2,2013-01-08 04:29:00,
2013-01-07 22:34:00,27.7,25.9,29.95,SW,229,0.0,0.0,93,0.00,,,0.01,WUHU216DAVISVP2,2013-01-08 04:34:00,
2013-01-07 22:39:00,27.8,25.7,29.95,SW,229,0.0,0.0,92,0.00,,,0.01,WUHU216DAVISVP2,2013-01-08 04:39:00,
2013-01-07 22:44:00,27.8,25.7,29.95,SW,229,0.0,0.0,92,0.00,,,0.01,WUHU216DAVISVP2,2013-01-08 04:44:00,
2013-01-07 22:49:00,27.6,25.6,29.95,SW,229,0.0,0.0,92,0.00,,,0.01,WUHU216DAVISVP2,2013-01-08 04:49:00,
2013-01-07 22:54:00,27.3,25.3,29.94,SW,229,0.0,0.0,92,0.00,,,0.01,WUHU216DAVISVP2,2013-01-08 04:54:00,
2013-01-07 22:59:00,27.1,25.1,29.94,SW,229,0.0,0.0,92,0.00,,,0.01,WUHU216DAVISVP2,2013-01-08 04:59:00,
2013-01-07 23:00:00,27.1,25.1,29.94,SW,229,0.0,0.0,92,0.00,,,0.01,WUHU216DAVISVP2,2013-01-08 05:00:00,
2013-01-07 23:01:00,27.1,25.1,29.94,SW,229,0.0,0.0,92,0.00,,,0.01,WUHU216DAVISVP2,2013-01-08 05:01:00,
2013-01-07 23:02:00,27.0,25.0,29.94,SW,229,0.0,0.0,92,0.00,,,0.01,WUHU216DAVISVP2,2013-01-08 05:02:00,
2013-01-07 23:07:00,26.5,24.2,29.94,SW,229,0.0,0.0,91,0.00,,,0.01,WUHU216DAVISVP2,2013-01-08 05:07:00,
2013-01-07 23:12:00,26.2,23.9,29.94,SW,229,0.0,0.0,91,0.00,,,0.01,WUHU216DAVISVP2,2013-01-08 05:12:00,
2013-01-07 23:17:00,25.9,23.6,29.94,SW,229,0.0,0.0,91,0.00,,,0.01,WUHU216DAVISVP2,2013-01-08 05:17:00,
2013-01-07 23:22:00,25.5,23.2,29.94,SW,229,0.0,0.0,91,0.00,,,0.01,WUHU216DAVISVP2,2013-01-08 05:22:00,
2013-01-07 23:27:00,25.4,23.4,29.94,SW,229,0.0,0.0,92,0.00,,,0.01,WUHU216DAVISVP2,2013-01-08 05:27:00,
2013-01-07 23:32:00,25.3,23.3,29.94,SW,229,0.0,0.0,92,0.00,,,0.01,WUHU216DAVISVP2,2013-01-08 05:32:00,
2013-01-07 23:37:00,25.3,23.3,29.94,SW,229,0.0,0.0,92,0.00,,,0.01,WUHU216DAVISVP2,2013-01-08 05:37:00,
2013-01-07 23:42:00,25.3,23.3,29.94,SW,229,0.0,0.0,92,0.00,,,0.01,WUHU216DAVISVP2,2013-01-08 05:42:00,
2013-01-07 23:47:00,25.7,24.0,29.94,SW,229,0.0,0.0,93,0.00,,,0.01,WUHU216DAVISVP2,2013-01-08 05:47:00,
2013-01-07 23:52:00,25.9,24.2,29.94,SW,229,0.0,0.0,93,0.00,,,0.01,WUHU216DAVISVP2,2013-01-08 05:52:00,
2013-01-07 23:57:00,25.8,24.1,29.94,SW,229,0.0,0.0,93,0.00,,,0.01,WUHU216DAVISVP2,2013-01-08 05:57:00,